Current weather by "City, St" or "zip code"  
 

Current Conditions: Olympia, Olympia Airport, WA

Fair


38.0 F

Last Updated on Apr 23 2021, 2:54 am PDT
Humidity: 93%
Wind Speed: S 5.8 mph
Barometer 29.99 in
Dewpoint: 36.0 F
Visibility: 10.00 mi
Precip: --
Heat Index: NA
Wind Chill: 34 F
Current conditions at:

Olympia, Olympia Airport, WA (KOLM)

Lat: 46.97333 Lon: 122.90333

Local Radar Image active severe weather and emergency alerts image image weather storm and storm spotter reports image weather observation monitoring service image
Local
Radar
Active
Alerts
Storm Reports Obs
Monitoring

Sign-up For Email & Text Message Weather Alert Notification Services



Advertise Here

Observation History for Olympia, Olympia Airport, WA


Time Wind
(mph)
Vis
(mi)
Weather Precip (in) Temperature (F) Relative
Humidity
Wind
Chill
(F)
Heat
Index
(F)
Pressure
Air Dwpt altimeter
(in)
sea level
(mb)
Rmks
2:54 am PDT S 5.8 10.00 Fair -- 38.0 36.0 93% 34 NA 29.99 1015.7
1:54 am PDT N 0.0 10.00 Fair -- 41.0 37.9 89% NA NA 29.99 1015.6
12:54 am PDT N 0.0 10.00 Fair -- 41.0 37.0 86% NA NA 29.99 1015.6
11:54 pm PDT S 3.5 10.00 Fair -- 45.0 39.0 80% NA NA 29.99 1015.5
10:54 pm PDT S 4.6 10.00 Fair -- 46.0 39.0 77% 44 NA 29.98 1015.3
9:54 pm PDT S 8.1 8.00 Fair -- 47.0 39.9 77% 43 NA 29.97 1015.0
8:54 pm PDT SW 5.8 10.00 Fair -- 52.0 39.9 64% 50 NA 29.95 1014.3
7:54 pm PDT W 5.8 10.00 Mostly Cloudy -- 57.0 42.1 58% 56 NA 29.94 1013.7
6:54 pm PDT NW 3.5 10.00 A Few Clouds -- 60.0 42.1 52% NA NA 29.93 1013.6
5:54 pm PDT SW 3.5 10.00 A Few Clouds -- 61.0 42.1 50% NA NA 29.93 1013.7
4:54 pm PDT NW 3.5 10.00 Overcast -- 61.0 41.0 48% NA NA 29.94 1014.0
4:54 pm PDT NW 3.5 10.00 Overcast -- 61.0 41.0 48% NA NA 29.94 1014.0
3:54 pm PDT W 5.8 10.00 Overcast -- 59.0 41.0 51% 58 NA 29.95 1014.2
2:54 pm PDT SW 5.8 10.00 Overcast -- 56.0 41.0 57% 55 NA 29.97 1014.9
1:54 pm PDT W 4.6 10.00 Overcast -- 56.0 42.1 60% 55 NA 29.97 1014.8
12:54 pm PDT SW 5.8 10.00 Overcast -- 55.0 42.1 62% 54 NA 29.97 1014.7
11:54 am PDT S 9.2 10.00 Overcast -- 53.0 44.1 72% 50 NA 29.97 1015.1
10:54 am PDT S 6.9 10.00 Overcast -- 51.0 44.1 77% 48 NA 29.97 1014.9
9:54 am PDT S 10.4 10.00 Overcast -- 50.0 43.0 77% 46 NA 29.96 1014.6
8:54 am PDT S 9.2 10.00 Overcast -- 49.0 42.1 77% 45 NA 29.95 1014.3
7:54 am PDT S 9.2 10.00 Overcast -- 48.0 43.0 83% 44 NA 29.95 1014.1
6:54 am PDT S 6.9 10.00 Overcast -- 47.0 43.0 86% 44 NA 29.94 1013.8
5:54 am PDT S 8.1 10.00 Overcast -- 47.0 43.0 86% 43 NA 29.92 1013.3
4:54 am PDT S 8.1 10.00 Overcast -- 48.0 43.0 83% 44 NA 29.94 1013.7

Regional Weather Observation


Fort Lewis / Gray U. S. Army Airfield, WA (KGRF)

Fair
38.0 F

Tacoma, Tacoma Narrows Airport, WA (KTIW)

Fair
43.0 F

Tacoma / McChord Air Force Base, WA (KTCM)

Fair
39.0 F

Bremerton, Bremerton National Airport, WA (KPWT)

Fair
42.0 F

Olympia, Olympia Airport, WA (KOLM)

Fair
38.0 F

Pierce County-Thun Field, WA (KPLU)

Overcast
43.0 F

Advertise Here


Advertise Here